WZZ8TQ LHBP-EETN

Flight info

Callsign WZZ8TQ
Flight time 1h 51m
Altitude 33000
Route LITKU Y301 KALIF DCT SUPAK DCT LOGDA DCT SUWGI/N0426F340 DCT BERIL/N0422F330 DCT SOKVA DCT ANAMA DCT KEMET
Aircraft A21N/M-SDE2E3FGHIRWXY/LB1

Departure

Time 2026-05-07 10:25
Airport Budapest Liszt Ferenc International Airport (LHBP)

Arrival

Time 2026-05-07 12:16
Airport Lennart Meri Tallinn Airport (EETN)
Time Latitude Longitude Altitude Speed Heading
2026-05-07 10:02 47.43543 19.26017 463 ft 0 kts 312°
2026-05-07 10:19 47.43544 19.26015 463 ft 1 kts 312°
2026-05-07 10:19 47.43552 19.26003 461 ft 2 kts 312°
2026-05-07 10:19 47.43565 19.25980 463 ft 4 kts 303°
2026-05-07 10:20 47.43563 19.25938 463 ft 5 kts 245°
2026-05-07 10:20 47.43539 19.25892 463 ft 6 kts 223°
2026-05-07 10:20 47.43504 19.25845 463 ft 7 kts 223°
2026-05-07 10:20 47.43500 19.25778 463 ft 8 kts 309°
2026-05-07 10:21 47.43538 19.25722 463 ft 8 kts 303°
2026-05-07 10:21 47.43531 19.25648 463 ft 8 kts 217°
2026-05-07 10:21 47.43488 19.25583 463 ft 10 kts 226°
2026-05-07 10:21 47.43435 19.25513 461 ft 11 kts 222°
2026-05-07 10:22 47.43376 19.25432 463 ft 12 kts 223°
2026-05-07 10:22 47.43309 19.25342 463 ft 14 kts 222°
2026-05-07 10:22 47.43236 19.25244 463 ft 15 kts 223°
2026-05-07 10:22 47.43158 19.25138 463 ft 16 kts 221°
2026-05-07 10:23 47.43085 19.25042 463 ft 7 kts 222°
2026-05-07 10:23 47.43080 19.24973 463 ft 8 kts 311°
2026-05-07 10:23 47.43097 19.24946 462 ft 0 kts 310°
2026-05-07 10:24 47.43098 19.24945 462 ft 1 kts 310°
2026-05-07 10:24 47.43221 19.24742 461 ft 62 kts 314°
2026-05-07 10:25 47.43684 19.23998 457 ft 132 kts 313°
2026-05-07 10:25 47.44421 19.22797 521 ft 174 kts 308°
2026-05-07 10:25 47.45238 19.21518 1155 ft 171 kts 309°
2026-05-07 10:25 47.46062 19.20236 1852 ft 174 kts 308°
2026-05-07 10:26 47.46883 19.18907 2378 ft 178 kts 305°
2026-05-07 10:26 47.47718 19.17482 2844 ft 191 kts 306°
2026-05-07 10:26 47.48697 19.15996 3362 ft 210 kts 315°
2026-05-07 10:26 47.49873 19.14582 3885 ft 227 kts 316°
2026-05-07 10:27 47.51176 19.13013 4237 ft 254 kts 316°
2026-05-07 10:27 47.52596 19.11293 4800 ft 268 kts 316°
2026-05-07 10:27 47.54051 19.09534 5604 ft 271 kts 316°
2026-05-07 10:27 47.55521 19.07767 6455 ft 275 kts 319°
2026-05-07 10:28 47.57273 19.06549 7161 ft 285 kts 345°
2026-05-07 10:28 47.59254 19.06549 7866 ft 294 kts 11°
2026-05-07 10:28 47.61148 19.07731 8619 ft 298 kts 28°
2026-05-07 10:28 47.62945 19.09299 9309 ft 302 kts 30°
2026-05-07 10:29 47.64769 19.10904 10004 ft 306 kts 29°
2026-05-07 10:29 47.66636 19.12514 10445 ft 318 kts 28°
2026-05-07 10:29 47.68611 19.14186 10742 ft 335 kts 28°
2026-05-07 10:30 47.72822 19.17696 11632 ft 355 kts 28°
2026-05-07 10:30 47.74985 19.19495 12296 ft 357 kts 27°
2026-05-07 10:30 47.77172 19.21314 12967 ft 361 kts 28°
2026-05-07 10:30 47.79368 19.23139 13615 ft 364 kts 28°
2026-05-07 10:31 47.81593 19.24994 14207 ft 368 kts 27°
2026-05-07 10:31 47.83835 19.26856 14782 ft 371 kts 28°
2026-05-07 10:31 47.86093 19.28740 15361 ft 374 kts 28°
2026-05-07 10:31 47.88380 19.30654 15961 ft 377 kts 28°
2026-05-07 10:32 47.90681 19.32576 16553 ft 380 kts 28°
2026-05-07 10:32 47.92979 19.34500 17123 ft 384 kts 28°
2026-05-07 10:32 47.95312 19.36459 17683 ft 387 kts 28°
2026-05-07 10:32 47.97677 19.38445 18247 ft 390 kts 28°
2026-05-07 10:33 48.00049 19.40435 18735 ft 393 kts 28°
2026-05-07 10:33 48.02450 19.42450 19209 ft 396 kts 28°
2026-05-07 10:33 48.04858 19.44479 19663 ft 399 kts 28°
2026-05-07 10:33 48.07288 19.46524 20107 ft 402 kts 28°
2026-05-07 10:34 48.09733 19.48577 20541 ft 404 kts 28°
2026-05-07 10:34 48.12193 19.50653 20946 ft 407 kts 29°
2026-05-07 10:34 48.14659 19.52743 21325 ft 409 kts 29°
2026-05-07 10:34 48.17144 19.54850 21704 ft 412 kts 29°
2026-05-07 10:35 48.19651 19.56973 22068 ft 414 kts 28°
2026-05-07 10:35 48.22275 19.58762 22415 ft 415 kts 17°
2026-05-07 10:35 48.25096 19.59622 22745 ft 415 kts
2026-05-07 10:35 48.27987 19.59550 23081 ft 415 kts 354°
2026-05-07 10:36 48.29895 19.59342 23306 ft 416 kts 353°
2026-05-07 10:36 48.32785 19.59005 23602 ft 418 kts 353°
2026-05-07 10:36 48.35701 19.58680 23864 ft 420 kts 353°
2026-05-07 10:36 48.39573 19.58283 24237 ft 422 kts 354°
2026-05-07 10:37 48.41559 19.58088 24424 ft 423 kts 354°
2026-05-07 10:37 48.44511 19.57798 24680 ft 424 kts 354°
2026-05-07 10:37 48.47419 19.57517 24942 ft 426 kts 354°
2026-05-07 10:37 48.50390 19.57379 25195 ft 429 kts
2026-05-07 10:38 48.53365 19.57921 25437 ft 432 kts
2026-05-07 10:38 48.56327 19.58749 25680 ft 434 kts
2026-05-07 10:38 48.59292 19.59614 25917 ft 435 kts
2026-05-07 10:38 48.62276 19.60477 26140 ft 436 kts
2026-05-07 10:39 48.65262 19.61330 26347 ft 438 kts
2026-05-07 10:39 48.68262 19.62185 26582 ft 439 kts
2026-05-07 10:39 48.71269 19.63042 26792 ft 440 kts
2026-05-07 10:39 48.74286 19.63899 27009 ft 441 kts
2026-05-07 10:40 48.77310 19.64751 27213 ft 443 kts
2026-05-07 10:40 48.80343 19.65603 27405 ft 444 kts
2026-05-07 10:40 48.83387 19.66465 27599 ft 445 kts
2026-05-07 10:40 48.86439 19.67336 27786 ft 447 kts
2026-05-07 10:41 48.89498 19.68210 27990 ft 448 kts
2026-05-07 10:41 48.92564 19.69087 28186 ft 449 kts
2026-05-07 10:41 48.95637 19.69965 28488 ft 452 kts
2026-05-07 10:41 48.98741 19.70853 28834 ft 453 kts
2026-05-07 10:42 49.01848 19.71745 29112 ft 456 kts
2026-05-07 10:42 49.04976 19.72641 29399 ft 458 kts
2026-05-07 10:42 49.08120 19.73544 29705 ft 460 kts
2026-05-07 10:42 49.11232 19.74441 29987 ft 462 kts
2026-05-07 10:43 49.14395 19.75353 30233 ft 464 kts
2026-05-07 10:43 49.17581 19.76271 30468 ft 465 kts
2026-05-07 10:43 49.20765 19.77190 30691 ft 466 kts
2026-05-07 10:43 49.23934 19.78109 31017 ft 465 kts
2026-05-07 10:44 49.27121 19.79034 31308 ft 464 kts
2026-05-07 10:44 49.30276 19.79992 31581 ft 465 kts 11°
2026-05-07 10:44 49.33414 19.81280 31899 ft 466 kts 13°
2026-05-07 10:44 49.36548 19.82641 32217 ft 465 kts 13°
2026-05-07 10:45 49.39666 19.84008 32508 ft 464 kts 13°
2026-05-07 10:45 49.42731 19.85347 32776 ft 464 kts 13°
2026-05-07 10:45 49.45875 19.86716 32968 ft 463 kts 13°
2026-05-07 10:45 49.48925 19.88044 32976 ft 462 kts 13°
2026-05-07 10:46 49.55101 19.90737 32947 ft 462 kts 13°
2026-05-07 10:46 49.61292 19.93450 32929 ft 461 kts 13°
2026-05-07 10:47 49.67462 19.96155 32923 ft 461 kts 13°
2026-05-07 10:47 49.73632 19.98859 32924 ft 461 kts 13°
2026-05-07 10:48 49.79815 20.01577 32926 ft 462 kts 13°
2026-05-07 10:48 49.85994 20.04310 32924 ft 462 kts 13°
2026-05-07 10:49 49.92180 20.07053 32924 ft 462 kts 13°
2026-05-07 10:49 49.98362 20.09798 32925 ft 462 kts 13°
2026-05-07 10:50 50.04510 20.12545 32924 ft 462 kts 13°
2026-05-07 10:50 50.10694 20.15313 32920 ft 462 kts 13°
2026-05-07 10:51 50.16887 20.18088 32920 ft 463 kts 13°
2026-05-07 10:51 50.23076 20.20859 32915 ft 462 kts 14°
2026-05-07 10:52 50.29261 20.23645 32909 ft 463 kts 14°
2026-05-07 10:52 50.35455 20.26447 32907 ft 463 kts 14°
2026-05-07 10:53 50.41607 20.29224 32908 ft 463 kts 14°
2026-05-07 10:53 50.47792 20.32028 32906 ft 463 kts 14°
2026-05-07 10:54 50.53983 20.34849 32900 ft 463 kts 14°
2026-05-07 10:54 50.60182 20.37684 32904 ft 463 kts 14°
2026-05-07 10:55 50.66370 20.40522 32908 ft 463 kts 14°
2026-05-07 10:55 50.72556 20.43365 32907 ft 463 kts 14°
2026-05-07 10:56 50.78741 20.46213 32901 ft 463 kts 14°
2026-05-07 10:56 50.84897 20.49053 32901 ft 463 kts 14°
2026-05-07 10:57 50.91092 20.51922 32900 ft 464 kts 14°
2026-05-07 10:57 50.97283 20.54798 32903 ft 463 kts 14°
2026-05-07 10:58 51.03355 20.58321 32904 ft 466 kts 22°
2026-05-07 10:58 51.09248 20.62611 32892 ft 466 kts 22°
2026-05-07 10:59 51.15164 20.66864 32900 ft 466 kts 22°
2026-05-07 10:59 51.21094 20.71073 32896 ft 466 kts 22°
2026-05-07 11:00 51.26975 20.75271 32894 ft 466 kts 22°
2026-05-07 11:00 51.32881 20.79498 32884 ft 466 kts 22°
2026-05-07 11:01 51.38805 20.83752 32888 ft 466 kts 22°
2026-05-07 11:01 51.44721 20.88003 32885 ft 466 kts 22°
2026-05-07 11:02 51.50633 20.92276 32882 ft 466 kts 22°
2026-05-07 11:02 51.56559 20.96577 32890 ft 467 kts 22°
2026-05-07 11:03 51.62474 21.00864 32890 ft 467 kts 22°
2026-05-07 11:03 51.68405 21.05173 32889 ft 468 kts 22°
2026-05-07 11:04 51.74342 21.09512 32892 ft 468 kts 23°
2026-05-07 11:04 51.80265 21.13856 32892 ft 468 kts 23°
2026-05-07 11:05 51.86207 21.18214 32902 ft 469 kts 23°
2026-05-07 11:05 51.92144 21.22594 32910 ft 469 kts 23°
2026-05-07 11:06 51.98092 21.26983 32909 ft 470 kts 23°
2026-05-07 11:06 52.04051 21.31396 32919 ft 470 kts 23°
2026-05-07 11:07 52.09959 21.35784 32917 ft 471 kts 23°
2026-05-07 11:07 52.15922 21.40240 32914 ft 472 kts 23°
2026-05-07 11:08 52.21875 21.44745 32904 ft 472 kts 23°
2026-05-07 11:08 52.27863 21.49222 32907 ft 473 kts 23°
2026-05-07 11:09 52.33848 21.53719 32895 ft 473 kts 23°
2026-05-07 11:09 52.39848 21.58229 32903 ft 474 kts 23°
2026-05-07 11:10 52.45797 21.62735 32900 ft 474 kts 24°
2026-05-07 11:10 52.51788 21.67301 32896 ft 474 kts 23°
2026-05-07 11:11 52.57790 21.71858 32906 ft 475 kts 24°
2026-05-07 11:11 52.63780 21.76436 32894 ft 475 kts 24°
2026-05-07 11:12 52.69782 21.80999 32904 ft 475 kts 24°
2026-05-07 11:12 52.75773 21.85589 32900 ft 475 kts 24°
2026-05-07 11:13 52.81778 21.90215 32903 ft 475 kts 24°
2026-05-07 11:13 52.87722 21.94812 32896 ft 475 kts 24°
2026-05-07 11:14 52.93709 21.99452 32907 ft 475 kts 24°
2026-05-07 11:14 52.99691 22.04102 32901 ft 475 kts 24°
2026-05-07 11:15 53.05657 22.08757 32893 ft 474 kts 24°
2026-05-07 11:15 53.11624 22.13429 32893 ft 474 kts 24°
2026-05-07 11:16 53.17471 22.18562 32897 ft 474 kts 27°
2026-05-07 11:16 53.23458 22.23111 32900 ft 473 kts 21°
2026-05-07 11:17 53.29517 22.27524 32902 ft 474 kts 23°
2026-05-07 11:17 53.35455 22.32192 32893 ft 474 kts 24°
2026-05-07 11:18 53.41423 22.36944 32892 ft 474 kts 24°
2026-05-07 11:18 53.47392 22.41706 32893 ft 475 kts 24°
2026-05-07 11:19 53.53351 22.46470 32891 ft 474 kts 24°
2026-05-07 11:19 53.59315 22.51253 32891 ft 475 kts 24°
2026-05-07 11:20 53.65285 22.56057 32891 ft 475 kts 24°
2026-05-07 11:20 53.71244 22.60866 32892 ft 475 kts 24°
2026-05-07 11:21 53.77198 22.65687 32892 ft 475 kts 24°
2026-05-07 11:21 53.83124 22.70500 32890 ft 475 kts 24°
2026-05-07 11:22 53.89081 22.75363 32895 ft 475 kts 24°
2026-05-07 11:22 53.95031 22.80226 32896 ft 475 kts 24°
2026-05-07 11:23 53.99989 22.84283 32893 ft 475 kts 24°
2026-05-07 11:23 54.05992 22.89031 32890 ft 474 kts 17°
2026-05-07 11:24 54.09151 22.90479 32886 ft 469 kts
2026-05-07 11:24 54.12377 22.90963 32911 ft 466 kts 356°
2026-05-07 11:24 54.18883 22.91558 32904 ft 469 kts 360°
2026-05-07 11:25 54.25348 22.92813 32966 ft 471 kts
2026-05-07 11:25 54.28603 22.93530 33192 ft 471 kts
2026-05-07 11:25 54.31856 22.94288 33475 ft 473 kts
2026-05-07 11:26 54.35084 22.95465 33709 ft 474 kts
2026-05-07 11:26 54.38316 22.96614 33897 ft 473 kts
2026-05-07 11:26 54.44822 22.98325 33943 ft 472 kts
2026-05-07 11:27 54.51334 22.99754 33918 ft 472 kts
2026-05-07 11:27 54.57853 23.01187 33918 ft 472 kts
2026-05-07 11:28 54.64344 23.02631 33914 ft 472 kts
2026-05-07 11:28 54.70868 23.04087 33914 ft 472 kts
2026-05-07 11:29 54.77386 23.05546 33913 ft 472 kts
2026-05-07 11:29 54.83911 23.07012 33920 ft 473 kts
2026-05-07 11:30 54.90436 23.08483 33913 ft 473 kts
2026-05-07 11:30 54.96962 23.09958 33912 ft 473 kts
2026-05-07 11:31 55.03493 23.11432 33923 ft 473 kts
2026-05-07 11:31 55.09981 23.12905 33923 ft 474 kts
2026-05-07 11:32 55.19788 23.15144 33930 ft 474 kts
2026-05-07 11:33 55.26337 23.16647 33920 ft 474 kts
2026-05-07 11:33 55.32879 23.18153 33924 ft 474 kts
2026-05-07 11:34 55.39417 23.19664 33923 ft 474 kts
2026-05-07 11:34 55.45928 23.21171 33924 ft 474 kts
2026-05-07 11:35 55.52466 23.22691 33925 ft 474 kts
2026-05-07 11:35 55.59007 23.24218 33931 ft 474 kts
2026-05-07 11:36 55.65549 23.25746 33949 ft 474 kts
2026-05-07 11:36 55.72096 23.27284 33955 ft 474 kts
2026-05-07 11:37 55.78627 23.28822 33963 ft 473 kts
2026-05-07 11:37 55.85115 23.30358 33967 ft 473 kts
2026-05-07 11:38 55.91653 23.31907 33971 ft 473 kts
2026-05-07 11:38 55.98183 23.33459 33982 ft 472 kts
2026-05-07 11:39 56.04697 23.35015 33953 ft 472 kts
2026-05-07 11:39 56.11210 23.36577 33957 ft 472 kts
2026-05-07 11:40 56.17727 23.38144 33955 ft 472 kts
2026-05-07 11:40 56.24233 23.39712 33949 ft 471 kts
2026-05-07 11:41 56.30735 23.41286 33954 ft 471 kts
2026-05-07 11:41 56.37225 23.43157 33948 ft 477 kts
2026-05-07 11:42 56.43576 23.46583 33961 ft 479 kts 11°
2026-05-07 11:42 56.49951 23.50090 33967 ft 479 kts 11°
2026-05-07 11:43 56.56339 23.53609 33968 ft 479 kts 11°
2026-05-07 11:43 56.62705 23.57108 33968 ft 478 kts 11°
2026-05-07 11:44 56.69078 23.60625 33969 ft 478 kts 11°
2026-05-07 11:44 56.75392 23.64130 33972 ft 478 kts 12°
2026-05-07 11:45 56.81753 23.67703 33971 ft 478 kts 12°
2026-05-07 11:45 56.88112 23.71269 33973 ft 477 kts 12°
2026-05-07 11:46 56.94473 23.74849 33968 ft 477 kts 12°
2026-05-07 11:46 57.00826 23.78422 33969 ft 477 kts 12°
2026-05-07 11:47 57.07136 23.81975 33971 ft 478 kts 12°
2026-05-07 11:47 57.13485 23.85559 33980 ft 477 kts 12°
2026-05-07 11:48 57.19842 23.89153 33981 ft 478 kts 12°
2026-05-07 11:48 57.26196 23.92776 33988 ft 478 kts 12°
2026-05-07 11:49 57.32559 23.96411 33992 ft 478 kts 12°
2026-05-07 11:49 57.38921 24.00064 33991 ft 479 kts 12°
2026-05-07 11:50 57.45252 24.03719 33992 ft 479 kts 12°
2026-05-07 11:50 57.51613 24.07407 33990 ft 479 kts 12°
2026-05-07 11:51 57.57978 24.11113 33902 ft 477 kts 12°
2026-05-07 11:51 57.61125 24.12952 33567 ft 468 kts 12°
2026-05-07 11:51 57.64197 24.14752 33229 ft 461 kts 12°
2026-05-07 11:51 57.67249 24.16538 32778 ft 456 kts 11°
2026-05-07 11:52 57.70263 24.18307 32279 ft 453 kts 11°
2026-05-07 11:52 57.73256 24.20065 31738 ft 450 kts 11°
2026-05-07 11:52 57.76242 24.21816 31229 ft 448 kts 11°
2026-05-07 11:52 57.79212 24.23564 30720 ft 445 kts 11°
2026-05-07 11:53 57.82151 24.25296 30233 ft 443 kts 11°
2026-05-07 11:53 57.85080 24.27028 29680 ft 441 kts 11°
2026-05-07 11:53 57.88001 24.28758 29126 ft 438 kts 11°
2026-05-07 11:53 57.90920 24.30263 28594 ft 431 kts
2026-05-07 11:54 57.93840 24.31311 28107 ft 426 kts
2026-05-07 11:54 57.96745 24.32289 27634 ft 422 kts
2026-05-07 11:54 57.99625 24.33258 27145 ft 419 kts
2026-05-07 11:54 58.02488 24.34232 26662 ft 417 kts
2026-05-07 11:55 58.05337 24.35205 26188 ft 414 kts
2026-05-07 11:55 58.08157 24.36176 25724 ft 412 kts
2026-05-07 11:55 58.10972 24.37145 25261 ft 410 kts
2026-05-07 11:55 58.13765 24.38112 24815 ft 407 kts
2026-05-07 11:56 58.16543 24.39075 24353 ft 405 kts
2026-05-07 11:56 58.19317 24.40038 23867 ft 404 kts
2026-05-07 11:56 58.22081 24.40997 23366 ft 403 kts
2026-05-07 11:56 58.24836 24.41956 22843 ft 401 kts
2026-05-07 11:57 58.27524 24.42890 22341 ft 398 kts
2026-05-07 11:57 58.30270 24.43850 21825 ft 394 kts
2026-05-07 11:57 58.32962 24.44794 21338 ft 389 kts
2026-05-07 11:57 58.35575 24.45710 20875 ft 384 kts
2026-05-07 11:58 58.38193 24.46629 20421 ft 380 kts
2026-05-07 11:58 58.40784 24.47537 19967 ft 375 kts
2026-05-07 11:58 58.43334 24.48434 19542 ft 371 kts
2026-05-07 11:58 58.45862 24.49323 19120 ft 366 kts
2026-05-07 11:59 58.48354 24.50202 18688 ft 362 kts
2026-05-07 11:59 58.50815 24.51073 18268 ft 358 kts
2026-05-07 11:59 58.53247 24.51934 17810 ft 353 kts
2026-05-07 11:59 58.55646 24.52785 17386 ft 348 kts
2026-05-07 12:00 58.58011 24.53623 16979 ft 343 kts
2026-05-07 12:00 58.60338 24.54450 16581 ft 337 kts
2026-05-07 12:00 58.62632 24.55267 16187 ft 332 kts
2026-05-07 12:00 58.64884 24.56069 15825 ft 328 kts
2026-05-07 12:01 58.67131 24.56870 15477 ft 328 kts
2026-05-07 12:01 58.69345 24.57662 15131 ft 328 kts
2026-05-07 12:01 58.71602 24.58432 14749 ft 328 kts
2026-05-07 12:01 58.73869 24.58398 14336 ft 325 kts 350°
2026-05-07 12:02 58.76114 24.57834 13928 ft 325 kts 349°
2026-05-07 12:02 58.78333 24.57225 13505 ft 320 kts 349°
2026-05-07 12:02 58.80528 24.56636 13083 ft 315 kts 350°
2026-05-07 12:02 58.82663 24.56075 12672 ft 310 kts 350°
2026-05-07 12:03 58.84788 24.55523 12282 ft 305 kts 350°
2026-05-07 12:03 58.86877 24.54986 11885 ft 301 kts 351°
2026-05-07 12:03 58.88935 24.54458 11490 ft 297 kts 351°
2026-05-07 12:03 58.90966 24.53937 11108 ft 292 kts 351°
2026-05-07 12:04 58.92967 24.53423 10732 ft 288 kts 351°
2026-05-07 12:04 58.94958 24.52915 10379 ft 289 kts 352°
2026-05-07 12:04 58.96944 24.52404 10091 ft 285 kts 352°
2026-05-07 12:04 58.98886 24.51905 9772 ft 280 kts 352°
2026-05-07 12:05 59.00820 24.51406 9376 ft 280 kts 353°
2026-05-07 12:05 59.02746 24.50908 8922 ft 278 kts 353°
2026-05-07 12:05 59.04657 24.50415 8508 ft 275 kts 353°
2026-05-07 12:05 59.06542 24.49929 8132 ft 273 kts 353°
2026-05-07 12:06 59.08440 24.49439 7760 ft 274 kts 353°
2026-05-07 12:06 59.10326 24.48955 7371 ft 272 kts 353°
2026-05-07 12:06 59.12192 24.48472 6992 ft 269 kts 354°
2026-05-07 12:06 59.14042 24.47990 6639 ft 270 kts 354°
2026-05-07 12:07 59.15884 24.47507 6355 ft 265 kts 354°
2026-05-07 12:07 59.17681 24.47036 6195 ft 255 kts 354°
2026-05-07 12:07 59.19403 24.46584 6074 ft 244 kts 354°
2026-05-07 12:07 59.21100 24.46142 5608 ft 248 kts 354°
2026-05-07 12:08 59.22829 24.45690 5072 ft 253 kts 354°
2026-05-07 12:08 59.24582 24.45234 4698 ft 253 kts 354°
2026-05-07 12:08 59.26317 24.44779 4337 ft 250 kts 354°
2026-05-07 12:08 59.28038 24.44327 3991 ft 249 kts 354°
2026-05-07 12:09 59.29720 24.43885 3775 ft 243 kts 354°
2026-05-07 12:09 59.31361 24.43453 3646 ft 232 kts 355°
2026-05-07 12:09 59.32939 24.43065 3565 ft 228 kts 358°
2026-05-07 12:09 59.34483 24.42964 3465 ft 215 kts
2026-05-07 12:10 59.35936 24.42965 3332 ft 204 kts
2026-05-07 12:10 59.37335 24.42964 3025 ft 199 kts
2026-05-07 12:10 59.38719 24.42971 2698 ft 198 kts
2026-05-07 12:10 59.39601 24.43193 2630 ft 187 kts 18°
2026-05-07 12:11 59.40714 24.44257 2494 ft 172 kts 40°
2026-05-07 12:11 59.41306 24.46125 2410 ft 158 kts 76°
2026-05-07 12:11 59.41424 24.48220 2220 ft 151 kts 86°
2026-05-07 12:11 59.41417 24.50962 2198 ft 152 kts 88°
2026-05-07 12:12 59.41413 24.52368 2226 ft 154 kts 88°
2026-05-07 12:12 59.41407 24.54481 2225 ft 154 kts 88°
2026-05-07 12:12 59.41401 24.56581 2239 ft 154 kts 88°
2026-05-07 12:12 59.41395 24.58675 2209 ft 152 kts 88°
2026-05-07 12:13 59.41390 24.60740 2186 ft 155 kts 88°
2026-05-07 12:13 59.41384 24.62825 2017 ft 152 kts 88°
2026-05-07 12:13 59.41378 24.64857 1911 ft 143 kts 88°
2026-05-07 12:13 59.41373 24.66721 1689 ft 134 kts 87°
2026-05-07 12:14 59.41369 24.68557 1475 ft 135 kts 87°
2026-05-07 12:14 59.41364 24.70389 1273 ft 134 kts 87°
2026-05-07 12:14 59.41359 24.72223 1070 ft 134 kts 87°
2026-05-07 12:14 59.41350 24.74062 897 ft 134 kts 87°
2026-05-07 12:15 59.41347 24.75883 727 ft 134 kts 86°
2026-05-07 12:15 59.41345 24.77706 481 ft 133 kts 86°
2026-05-07 12:15 59.41331 24.79525 319 ft 134 kts 87°
2026-05-07 12:15 59.41329 24.81356 176 ft 131 kts 86°
2026-05-07 12:16 59.41326 24.82956 166 ft 87 kts 91°
2026-05-07 12:16 59.41324 24.83779 170 ft 51 kts 90°
2026-05-07 12:16 59.41322 24.84462 165 ft 50 kts 90°
2026-05-07 12:16 59.41320 24.84877 167 ft 20 kts 89°
2026-05-07 12:17 59.41380 24.85016 168 ft 14 kts
2026-05-07 12:17 59.41480 24.84976 167 ft 16 kts 312°
2026-05-07 12:17 59.41496 24.84757 167 ft 17 kts 270°
2026-05-07 12:17 59.41497 24.84512 167 ft 19 kts 270°
2026-05-07 12:18 59.41497 24.84234 167 ft 21 kts 270°
2026-05-07 12:18 59.41499 24.83938 167 ft 22 kts 270°
2026-05-07 12:18 59.41499 24.83624 167 ft 24 kts 270°
2026-05-07 12:18 59.41499 24.83294 167 ft 25 kts 270°
2026-05-07 12:19 59.41500 24.82950 167 ft 26 kts 270°
2026-05-07 12:19 59.41501 24.82588 167 ft 27 kts 270°
2026-05-07 12:19 59.41502 24.82200 167 ft 29 kts 270°
2026-05-07 12:19 59.41504 24.81808 167 ft 30 kts 270°
2026-05-07 12:20 59.41504 24.81393 167 ft 31 kts 270°
2026-05-07 12:20 59.41506 24.80964 167 ft 28 kts 270°
2026-05-07 12:20 59.41506 24.80653 167 ft 18 kts 270°
2026-05-07 12:20 59.41551 24.80512 167 ft 13 kts 353°
2026-05-07 12:21 59.41647 24.80516 167 ft 15 kts 360°
2026-05-07 12:21 59.41733 24.80414 167 ft 16 kts 290°
2026-05-07 12:21 59.41748 24.80234 167 ft 11 kts 271°
2026-05-07 12:21 59.41749 24.80096 167 ft 7 kts 271°
2026-05-07 12:22 59.41726 24.80051 167 ft 6 kts 188°
2026-05-07 12:22 59.41713 24.80050 167 ft 2 kts 178°
2026-05-07 12:22 59.41695 24.80050 167 ft 1 kts 180°
2026-05-07 12:22 59.41694 24.80051 167 ft 0 kts 180°